This is the latest recevied weather packets stored in our database for station/object IW4DZV-13. If no packets are shown the sender has not sent any weather packets the latest 10 day(s).
| Time | Temp. | Humidity | Pressure | Rain* | Wind** | Luminosity | Snow |
|---|---|---|---|---|---|---|---|
| 1777354221 | 13.33° C | 90% | 1014.7 hPa | 0 mm | - | 137 W/m² | - |
| 1777353311 | 12.78° C | 91% | 1014.7 hPa | 0 mm | - | 67 W/m² | - |
| 1777352409 | 12.22° C | 90% | 1014.5 hPa | 0 mm | - | 33 W/m² | - |
| 1777351507 | 12.22° C | 90% | 1014.5 hPa | 0 mm | - | 21 W/m² | - |
| 1777350605 | 12.22° C | 90% | 1014.3 hPa | 0 mm | - | 12 W/m² | - |
| 1777349706 | 12.22° C | 89% | 1014.3 hPa | 0 mm | - | 0 W/m² | - |
| 1777348803 | 12.22° C | 89% | 1014.3 hPa | 0 mm | - | 0 W/m² | - |
| 1777347902 | 12.22° C | 88% | 1014.3 hPa | 0 mm | - | 0 W/m² | - |
| 1777347001 | 12.22° C | 88% | 1014.4 hPa | 0 mm | - | 0 W/m² | - |
| 1777346162 | 12.22° C | 87% | 1014.6 hPa | 0 mm | - | 0 W/m² | - |
| 1777345258 | 12.22° C | 87% | 1014.6 hPa | 0 mm | - | 0 W/m² | - |
| 1777344356 | 12.22° C | 86% | 1014.7 hPa | 0 mm | - | 0 W/m² | - |
| 1777343455 | 12.22° C | 85% | 1014.8 hPa | 0 mm | - | 0 W/m² | - |
| 1777342553 | 12.78° C | 84% | 1014.9 hPa | 0 mm | - | 0 W/m² | - |
| 1777341654 | 12.78° C | 84% | 1015 hPa | 0 mm | - | 0 W/m² | - |
| 1777340758 | 12.78° C | 83% | 1015 hPa | 0 mm | - | 0 W/m² | - |
| 1777339849 | 12.78° C | 83% | 1015 hPa | 0 mm | - | 0 W/m² | - |
| 1777338948 | 13.33° C | 82% | 1015 hPa | 0 mm | - | 0 W/m² | - |
| 1777338047 | 13.33° C | 82% | 1015 hPa | 0 mm | - | 0 W/m² | - |
| 1777337146 | 13.33° C | 81% | 1015 hPa | 0 mm | - | 0 W/m² | - |
| 1777336245 | 13.89° C | 81% | 1015.1 hPa | 0 mm | - | 0 W/m² | - |
| 1777335345 | 13.89° C | 82% | 1015.2 hPa | 0 mm | - | 0 W/m² | - |
| 1777334442 | 14.44° C | 81% | 1015 hPa | 0 mm | - | 0 W/m² | - |
| 1777333547 | 14.44° C | 80% | 1015 hPa | 0 mm | - | 0 W/m² | - |
| 1777332651 | 14.44° C | 81% | 1014.9 hPa | 0 mm | - | 0 W/m² | - |
* Rain since midnight (hover to see other rain measurements)
** Current wind speed in m/s (hover to see current wind gust speed)